EW0407 Weather Reports


Display with metric or nautical units.
time (UTC)temp
F
wind
direction
speed
MPH
gust
MPH
rain 1hr
in
rain 24hr
in
rain mn
in
humidity
%
barometer
mb
20260508114628 72 159 5.0 8.0 0.00 0.00 0.00 46 1021.3
20260508113651 72 179 1.0 3.0 0.00 0.00 0.00 45 1020.7
20260508112614 71 214 2.0 3.0 0.00 0.00 0.00 46 1021.7
20260508111428 70 264 2.0 2.0 0.00 0.00 0.00 48 1021.3
20260508110452 70 201 2.0 3.0 0.00 0.00 0.00 48 1021.8
20260508105412 69 236 3.0 5.0 0.00 0.00 0.00 48 1022.1
20260508104227 69 274 5.0 6.0 0.00 0.00 0.00 50 1022.6
20260508103312 71 242 1.0 3.0 0.00 0.00 0.00 49 1022.6
20260508102252 70 154 0.0 2.0 0.00 0.00 0.00 51 1022.5
20260508101028 69 264 1.0 5.0 0.00 0.00 0.00 50 1022.6
20260508100052 68 249 2.0 6.0 0.00 0.00 0.00 54 1022.8
20260508095012 69 254 4.0 8.0 0.00 0.00 0.00 52 1023.4
20260508093828 69 203 3.0 5.0 0.00 0.00 0.00 52 1023.1
20260508092852 69 231 2.0 5.0 0.00 0.00 0.00 51 1023.2
20260508091812 70 254 4.0 7.0 0.00 0.00 0.00 49 1023.2
20260508090627 69 282 3.0 7.0 0.00 0.00 0.00 51 1023.7
20260508085652 68 272 4.0 6.0 0.00 0.00 0.00 49 1023.4
20260508084612 68 247 2.0 3.0 0.00 0.00 0.00 49 1023.5
20260508083636 68 261 2.0 2.0 0.00 0.00 0.00 50 1023.3
20260508082700 67 189 1.0 5.0 0.00 0.00 0.00 48 1023.2
20260508081615 68 258 4.0 8.0 0.00 0.00 0.00 48 1023.4
20260508080637 67 252 6.0 8.0 0.00 0.00 0.00 47 1023.7
20260508075652 67 271 7.0 8.0 0.00 0.00 0.00 47 1023.5
20260508074632 67 268 5.0 7.0 0.00 0.00 0.00 46 1023.8
20260508073428 66 292 5.0 6.0 0.00 0.00 0.00 45 1023.7
20260508072453 66 226 3.0 7.0 0.00 0.00 0.00 44 1023.9
20260508071413 66 208 1.0 7.0 0.00 0.00 0.00 43 1024.3
20260508070228 66 220 1.0 3.0 0.00 0.00 0.00 43 1024.3
20260508065251 66 235 3.0 5.0 0.00 0.00 0.00 43 1024.6
20260508064211 66 286 1.0 3.0 0.00 0.00 0.00 43 1024.1
20260508063027 65 273 1.0 5.0 0.00 0.00 0.00 46 1023.9
20260508062051 65 290 5.0 6.0 0.00 0.00 0.00 48 1023.9
20260508061011 65 300 7.0 8.0 0.00 0.00 0.00 51 1023.6
20260508055827 65 278 3.0 6.0 0.00 0.00 0.00 53 1023.1
20260508054851 66 275 3.0 3.0 0.00 0.00 0.00 52 1022.6
20260508053811 66 213 1.0 1.0 0.00 0.00 0.00 51 1022.5
20260508052627 66 338 1.0 2.0 0.00 0.00 0.00 49 1022.2
20260508051650 66 127 1.0 3.0 0.00 0.00 0.00 48 1022.3
20260508050611 65 18 2.0 2.0 0.00 0.00 0.00 49 1022.2
20260508045447 64 0.0 0.0 0.00 0.00 0.00 54 1022.7
20260508044451 63 0.0 0.0 0.00 0.00 0.00 54 1022.2
20260508043411 64 186 0.0 1.0 0.00 0.00 0.00 53 1022.1
20260508042227 63 33 1.0 2.0 0.00 0.00 0.00 51 1021.6
20260508041251 64 0.0 1.0 0.00 0.00 0.00 51 1021.8
20260508040211 64 106 0.0 1.0 0.00 0.00 0.00 49 1021.2
20260508035027 64 111 1.0 2.0 0.00 0.00 0.00 46 1021.5
20260508034051 64 28 1.0 2.0 0.00 0.00 0.00 47 1021.3
20260508033011 64 54 2.0 2.0 0.00 0.00 0.00 48 1021.2
20260508031827 63 55 1.0 2.0 0.00 0.00 0.00 47 1021.4
20260508030851 64 92 2.0 3.0 0.00 0.00 0.00 49 1021.4
20260508025811 64 309 1.0 1.0 0.00 0.00 0.00 46 1021.3
20260508024647 63 96 3.0 3.0 0.00 0.00 0.00 50 1021.4
20260508023651 65 0.0 0.0 0.00 0.00 0.00 43 1021.7
20260508022611 65 129 1.0 2.0 0.00 0.00 0.00 45 1021.6
20260508021427 64 0.0 1.0 0.00 0.00 0.00 46 1021.5
20260508020451 64 154 0.0 1.0 0.00 0.00 0.00 49 1021.5
20260508015411 64 114 1.0 3.0 0.00 0.00 0.00 52 1021.6
20260508014227 63 7 2.0 2.0 0.00 0.00 0.00 50 1021.8
20260508013251 64 0.0 1.0 0.00 0.00 0.00 49 1021.9
20260508012211 63 99 1.0 2.0 0.00 0.00 0.00 53 1022.1
20260508011027 63 110 1.0 2.0 0.00 0.00 0.00 52 1022.0
20260508010051 63 124 1.0 1.0 0.00 0.00 0.00 55 1022.4
20260508005031 63 0.0 0.0 0.00 0.00 0.00 59 1022.3
20260508004035 63 117 0.0 1.0 0.00 0.00 0.00 53 1022.6
20260508003059 63 0.0 1.0 0.00 0.00 0.00 56 1022.4
20260508002032 63 0.0 1.0 0.00 0.00 0.00 58 1022.4
20260508000828 63 2 3.0 3.0 0.00 0.00 0.00 60 1022.5
20260507235852 63 359 2.0 3.0 0.00 0.00 0.00 59 1022.6
20260507234812 63 6 1.0 2.0 0.00 0.00 0.00 58 1022.8
20260507233648 63 183 0.0 1.0 0.00 0.00 0.00 56 1023.1
20260507232653 63 0.0 0.0 0.00 0.00 0.00 55 1022.9
20260507231612 63 0.0 1.0 0.00 0.00 0.00 54 1022.9
20260507230448 63 224 1.0 2.0 0.00 0.00 0.00 54 1023.1
20260507225513 63 234 1.0 2.0 0.00 0.00 0.00 53 1023.2
20260507224412 64 253 1.0 2.0 0.00 0.00 0.00 51 1023.1
20260507223438 63 0.0 0.0 0.00 0.00 0.00 53 1023.1
20260507222500 63 0.0 0.0 0.00 0.00 0.00 53 1023.2
20260507221420 63 143 0.0 1.0 0.00 0.00 0.00 51 1023.4
20260507220440 63 0.0 0.0 0.00 0.00 0.00 51 1023.2
20260507215500 63 0.0 1.0 0.00 0.00 0.00 51 1023.7
20260507214421 63 0.0 2.0 0.00 0.00 0.00 51 1023.6
20260507213457 64 101 1.0 2.0 0.00 0.00 0.00 50 1023.6
20260507212500 64 113 1.0 2.0 0.00 0.00 0.00 50 1023.7
20260507211420 64 0.0 1.0 0.00 0.00 0.00 51 1023.8
20260507210443 64 126 1.0 1.0 0.00 0.00 0.00 52 1023.7
20260507205521 64 124 2.0 3.0 0.00 0.00 0.00 51 1023.5
20260507204421 64 120 4.0 6.0 0.00 0.00 0.00 52 1023.6
20260507203525 64 110 2.0 5.0 0.00 0.00 0.00 52 1023.6
20260507202500 64 125 3.0 7.0 0.00 0.00 0.00 51 1023.9
20260507201412 64 109 2.0 5.0 0.00 0.00 0.00 50 1023.5
20260507200248 64 156 5.0 6.0 0.00 0.00 0.00 50 1023.7
20260507195254 64 135 2.0 5.0 0.00 0.00 0.00 55 1023.9
20260507194212 63 121 4.0 7.0 0.00 0.00 0.00 55 1023.5
20260507193029 63 109 4.0 8.0 0.00 0.00 0.00 54 1023.6
20260507192113 63 102 3.0 5.0 0.00 0.00 0.00 54 1023.5
20260507191053 63 113 3.0 6.0 0.00 0.00 0.00 53 1023.4
20260507190037 63 110 3.0 6.0 0.00 0.00 0.00 53 1023.5
20260507185100 63 104 4.0 5.0 0.00 0.00 0.00 53 1023.6
20260507184013 63 117 3.0 5.0 0.00 0.00 0.00 53 1023.3
20260507182829 64 145 4.0 6.0 0.00 0.00 0.00 53 1023.3
20260507181852 64 118 3.0 5.0 0.00 0.00 0.00 54 1023.3
20260507180812 64 111 3.0 5.0 0.00 0.00 0.00 54 1023.4
20260507175628 64 122 5.0 6.0 0.00 0.00 0.00 56 1023.4
20260507174652 64 76 3.0 6.0 0.00 0.00 0.00 57 1023.0
20260507173632 64 142 3.0 9.0 0.00 0.00 0.00 57 1023.0
20260507172428 65 165 4.0 7.0 0.00 0.00 0.00 56 1022.9
20260507171452 65 117 3.0 7.0 0.00 0.00 0.00 55 1022.7
20260507170452 66 119 3.0 10.0 0.00 0.00 0.00 55 1022.5
20260507165248 67 149 7.0 10.0 0.00 0.00 0.00 53 1022.7
20260507164312 67 169 1.0 6.0 0.00 0.00 0.00 52 1022.2
20260507163213 68 132 4.0 6.0 0.00 0.00 0.00 51 1022.4
20260507162028 68 167 4.0 7.0 0.00 0.00 0.00 49 1022.1
20260507161113 69 108 5.0 6.0 0.00 0.00 0.00 46 1022.3
20260507160012 70 121 3.0 5.0 0.00 0.00 0.00 43 1022.0
20260507154849 71 130 6.0 8.0 0.00 0.00 0.00 41 1022.4
20260507153913 72 133 3.0 7.0 0.00 0.00 0.00 38 1022.3
20260507152812 73 106 3.0 6.0 0.00 0.00 0.00 35 1022.3
20260507151628 73 182 5.0 7.0 0.00 0.00 0.00 35 1022.2
20260507150653 73 11 2.0 7.0 0.00 0.00 0.00 35 1022.2
20260507145632 73 94 7.0 9.0 0.00 0.00 0.00 34 1022.2
20260507144428 73 166 5.0 8.0 0.00 0.00 0.00 32 1022.2
20260507143452 74 111 6.0 9.0 0.00 0.00 0.00 32 1022.3
20260507142412 74 153 5.0 9.0 0.00 0.00 0.00 32 1022.3
20260507141247 74 164 8.0 11.0 0.00 0.00 0.00 32 1022.1
20260507140251 75 193 3.0 10.0 0.00 0.00 0.00 33 1022.0
20260507135211 75 158 9.0 15.0 0.00 0.00 0.00 32 1021.8
20260507134027 75 155 7.0 13.0 0.00 0.00 0.00 33 1021.6
20260507133231 75 136 8.0 11.0 0.00 0.00 0.00 37 1021.4
20260507130827 74 149 7.0 10.0 0.00 0.00 0.00 35 1021.7
20260507125851 75 141 6.0 9.0 0.00 0.00 0.00 34 1022.0
20260507124811 75 113 4.0 10.0 0.00 0.00 0.00 34 1022.0
20260507123627 77 133 2.0 8.0 0.00 0.00 0.00 38 1022.1
20260507122651 80 204 3.0 7.0 0.00 0.00 0.00 30 1021.9
20260507121611 80 4 2.0 7.0 0.00 0.00 0.00 30 1022.1
20260507120428 79 157 3.0 11.0 0.00 0.00 0.00 32 1022.3
20260507115451 78 154 6.0 8.0 0.00 0.00 0.00 35 1022.2